sat.trackr.live / text

‹ back to catalog

STARLINK-1222

NORAD 45228 · 2020-012BC

PAYLOAD ACTIVE UNKNOWN

§ Identity

Operator
Country
US
Launch date
2020-02-17
Launch site
AFETR
Launch vehicle
Mass (kg)
RCS (m²)

Purposes: comms

External: N2YO · Heavens-Above · Gunter

§ Orbital elements

Epoch: 2026-09-20T04:34:17.364864Z

Period
92.05 min
Inclination
53.0486°
Eccentricity
0.0003486
Mean motion
15.64406256 rev/d
Perigee alt
372.6 km
Apogee alt
377.3 km
Semi-major
6,753.1 km
B*
3.6190e-4
RAAN
120.5495°
Arg perigee
129.2790°
Mean anomaly
230.8534°
Rev number
36,591

§ Raw data

STARLINK-12221 45228U 20012BC  26263.19047876  .00034975  00000+0  36190-3 0  99962 45228  53.0486 120.5495 0003486 129.2790 230.8534 15.64406256365914

JSON: /api/v1/satellites/45228 · /tle

For live sub-satellite position, see the globe view (requires WebGL).

§ Visibility from observer

Set your observer location to see the next 7 days of passes ≥ 10°. The values pass through the URL so the page stays shareable.

No JS? Fill the form by hand. The geolocation button needs JavaScript.